Year,Month,Day,Hour,Minute,Value (Times are PST for temperature in C)
2017,06,21,00,00,12.30
2017,06,21,00,01,12.30
2017,06,21,00,02,12.30
2017,06,21,00,03,12.20
2017,06,21,00,04,12.20
2017,06,21,00,05,12.20
2017,06,21,00,06,12.20
2017,06,21,00,07,12.20
2017,06,21,00,08,12.20
2017,06,21,00,09,12.20
2017,06,21,00,10,12.20
2017,06,21,00,11,12.20
2017,06,21,00,12,12.20
2017,06,21,00,13,12.20
2017,06,21,00,14,12.20
2017,06,21,00,15,12.20
2017,06,21,00,16,12.20
2017,06,21,00,17,12.20
2017,06,21,00,18,12.20
2017,06,21,00,19,12.20
2017,06,21,00,20,12.20
2017,06,21,00,21,12.20
2017,06,21,00,22,12.20
2017,06,21,00,23,12.20
2017,06,21,00,24,12.20
2017,06,21,00,25,12.20
2017,06,21,00,26,12.20
2017,06,21,00,27,12.20
2017,06,21,00,28,12.20
2017,06,21,00,29,12.20
2017,06,21,00,30,12.20
2017,06,21,00,31,12.20
2017,06,21,00,32,12.20
2017,06,21,00,33,12.10
2017,06,21,00,34,12.10
2017,06,21,00,35,12.10
2017,06,21,00,36,12.10
2017,06,21,00,37,12.10
2017,06,21,00,38,12.10
2017,06,21,00,39,12.10
2017,06,21,00,40,12.10
2017,06,21,00,41,12.10
2017,06,21,00,42,12.10
2017,06,21,00,43,12.10
2017,06,21,00,44,12.10
2017,06,21,00,45,12.10
2017,06,21,00,46,12.10
2017,06,21,00,47,12.10
2017,06,21,00,48,12.10
2017,06,21,00,49,12.10
2017,06,21,00,50,12.10
2017,06,21,00,51,12.10
2017,06,21,00,52,12.10
2017,06,21,00,53,12.10
2017,06,21,00,54,12.10
2017,06,21,00,55,12.10
2017,06,21,00,56,12.10
2017,06,21,00,57,12.10
2017,06,21,00,58,12.10
2017,06,21,00,59,12.10
2017,06,21,01,00,12.10
2017,06,21,01,01,12.10
2017,06,21,01,02,12.10
2017,06,21,01,03,12.10
2017,06,21,01,04,12.10
2017,06,21,01,05,12.10
2017,06,21,01,06,12.10
2017,06,21,01,07,12.10
2017,06,21,01,08,12.10
2017,06,21,01,09,12.10
2017,06,21,01,10,12.10
2017,06,21,01,11,12.10
2017,06,21,01,12,12.10
2017,06,21,01,13,12.10
2017,06,21,01,14,12.10
2017,06,21,01,15,12.20
2017,06,21,01,16,12.20
2017,06,21,01,17,12.20
2017,06,21,01,18,12.20
2017,06,21,01,19,12.20
2017,06,21,01,20,12.20
2017,06,21,01,21,12.10
2017,06,21,01,22,12.10
2017,06,21,01,23,12.10
2017,06,21,01,24,12.10
2017,06,21,01,25,12.10
2017,06,21,01,26,12.10
2017,06,21,01,27,12.10
2017,06,21,01,28,12.10
2017,06,21,01,29,12.10
2017,06,21,01,30,12.10
2017,06,21,01,31,12.10
2017,06,21,01,32,12.10
2017,06,21,01,33,12.10
2017,06,21,01,34,12.10
2017,06,21,01,35,12.10
2017,06,21,01,36,12.10
2017,06,21,01,37,12.10
2017,06,21,01,38,12.10
2017,06,21,01,39,12.10
2017,06,21,01,40,12.10
2017,06,21,01,41,12.00
2017,06,21,01,42,12.00
2017,06,21,01,43,12.00
2017,06,21,01,44,12.00
2017,06,21,01,45,12.00
2017,06,21,01,46,12.00
2017,06,21,01,47,12.00
2017,06,21,01,48,12.00
2017,06,21,01,49,12.00
2017,06,21,01,50,12.00
2017,06,21,01,51,12.00
2017,06,21,01,52,12.00
2017,06,21,01,53,12.00
2017,06,21,01,54,12.00
2017,06,21,01,55,12.00
2017,06,21,01,56,12.00
2017,06,21,01,57,12.00
2017,06,21,01,58,12.00
2017,06,21,01,59,12.00
2017,06,21,02,00,12.00
2017,06,21,02,01,12.00
2017,06,21,02,02,12.00
2017,06,21,02,03,12.00
2017,06,21,02,04,12.00
2017,06,21,02,05,11.90
2017,06,21,02,06,11.90
2017,06,21,02,07,11.90
2017,06,21,02,08,11.90
2017,06,21,02,09,11.90
2017,06,21,02,10,11.90
2017,06,21,02,11,11.90
2017,06,21,02,12,12.00
2017,06,21,02,13,12.00
2017,06,21,02,14,12.00
2017,06,21,02,15,12.00
2017,06,21,02,16,12.00
2017,06,21,02,17,12.00
2017,06,21,02,18,12.00
2017,06,21,02,19,12.00
2017,06,21,02,20,12.00
2017,06,21,02,21,11.90
2017,06,21,02,22,11.90
2017,06,21,02,23,11.90
2017,06,21,02,24,11.90
2017,06,21,02,25,11.90
2017,06,21,02,26,11.90
2017,06,21,02,27,11.90
2017,06,21,02,28,11.90
2017,06,21,02,29,11.90
2017,06,21,02,30,11.90
2017,06,21,02,31,11.90
2017,06,21,02,32,11.90
2017,06,21,02,33,11.90
2017,06,21,02,34,11.90
2017,06,21,02,35,11.90
2017,06,21,02,36,11.90
2017,06,21,02,37,11.90
2017,06,21,02,38,11.90
2017,06,21,02,39,11.90
2017,06,21,02,40,11.80
2017,06,21,02,41,11.90
2017,06,21,02,42,11.90
2017,06,21,02,43,11.90
2017,06,21,02,44,11.90
2017,06,21,02,45,11.90
2017,06,21,02,46,11.90
2017,06,21,02,47,11.90
2017,06,21,02,48,11.90
2017,06,21,02,49,11.90
2017,06,21,02,50,11.90
2017,06,21,02,51,11.90
2017,06,21,02,52,11.90
2017,06,21,02,53,11.80
2017,06,21,02,54,11.80
2017,06,21,02,55,11.80
2017,06,21,02,56,11.80
2017,06,21,02,57,11.80
2017,06,21,02,58,11.80
2017,06,21,02,59,11.80
2017,06,21,03,00,11.80
2017,06,21,03,01,11.80
2017,06,21,03,02,11.80
2017,06,21,03,03,11.80
2017,06,21,03,04,11.80
2017,06,21,03,05,11.80
2017,06,21,03,06,11.80
2017,06,21,03,07,11.80
2017,06,21,03,08,11.80
2017,06,21,03,09,11.80
2017,06,21,03,10,11.80
2017,06,21,03,11,11.80
2017,06,21,03,12,11.80
2017,06,21,03,13,11.80
2017,06,21,03,14,11.80
2017,06,21,03,15,11.80
2017,06,21,03,16,11.80
2017,06,21,03,17,11.80
2017,06,21,04,58,11.70
2017,06,21,04,59,11.60
2017,06,21,05,00,11.60
2017,06,21,05,01,11.60
2017,06,21,05,02,11.60
2017,06,21,05,03,11.60
2017,06,21,05,04,11.60
2017,06,21,05,05,11.60
2017,06,21,05,06,11.60
2017,06,21,05,07,11.60
2017,06,21,05,08,11.60
2017,06,21,05,09,11.60
2017,06,21,05,10,11.60
2017,06,21,05,11,11.60
2017,06,21,05,12,11.60
2017,06,21,05,13,11.60
2017,06,21,05,14,11.60
2017,06,21,05,15,11.60
2017,06,21,05,16,11.60
2017,06,21,05,17,11.60
2017,06,21,05,18,11.60
2017,06,21,05,19,11.60
2017,06,21,05,20,11.60
2017,06,21,05,21,11.60
2017,06,21,05,22,11.60
2017,06,21,05,23,11.60
2017,06,21,05,24,11.60
2017,06,21,05,25,11.60
2017,06,21,05,26,11.60
2017,06,21,05,27,11.60
2017,06,21,05,28,11.60
2017,06,21,05,29,11.60
2017,06,21,05,30,11.60
2017,06,21,05,31,11.60
2017,06,21,05,32,11.60
2017,06,21,05,33,11.60
2017,06,21,05,34,11.60
2017,06,21,05,35,11.60
2017,06,21,05,36,11.60
2017,06,21,05,37,11.60
2017,06,21,05,38,11.60
2017,06,21,05,39,11.60
2017,06,21,05,40,11.60
2017,06,21,05,41,11.60
2017,06,21,05,42,11.60
2017,06,21,05,43,11.60
2017,06,21,05,44,11.60
2017,06,21,05,45,11.60
2017,06,21,05,46,11.60
2017,06,21,05,47,11.60
2017,06,21,05,48,11.60
2017,06,21,05,49,11.60
2017,06,21,05,50,11.60
2017,06,21,05,51,11.60
2017,06,21,05,52,11.60
2017,06,21,05,53,11.60
2017,06,21,05,54,11.60
2017,06,21,05,55,11.60
2017,06,21,05,56,11.60
2017,06,21,05,57,11.60
2017,06,21,05,58,11.60
2017,06,21,05,59,11.60
2017,06,21,06,00,11.60
2017,06,21,06,01,11.60
2017,06,21,06,02,11.60
2017,06,21,06,03,11.60
2017,06,21,06,04,11.60
2017,06,21,06,05,11.60
2017,06,21,06,06,11.60
2017,06,21,06,07,11.60
2017,06,21,06,08,11.60
2017,06,21,06,09,11.70
2017,06,21,06,10,11.70
2017,06,21,06,11,11.70
2017,06,21,06,12,11.70
2017,06,21,06,13,11.70
2017,06,21,06,14,11.70
2017,06,21,06,15,11.80
2017,06,21,06,16,11.80
2017,06,21,06,17,11.80
2017,06,21,06,18,11.80
2017,06,21,06,19,11.80
2017,06,21,06,20,11.80
2017,06,21,06,21,11.80
2017,06,21,06,22,11.80
2017,06,21,06,23,11.80
2017,06,21,06,24,11.80
2017,06,21,06,25,11.90
2017,06,21,06,26,11.90
2017,06,21,06,27,11.90
2017,06,21,06,28,11.90
2017,06,21,06,29,11.90
2017,06,21,06,30,12.00
2017,06,21,06,31,12.00
2017,06,21,06,32,12.00
2017,06,21,06,33,12.00
2017,06,21,06,34,12.00
2017,06,21,06,35,12.10
2017,06,21,06,36,12.10
2017,06,21,06,37,12.10
2017,06,21,06,38,12.10
2017,06,21,06,39,12.10
2017,06,21,06,40,12.10
2017,06,21,06,41,12.20
2017,06,21,06,42,12.20
2017,06,21,06,43,12.20
2017,06,21,06,44,12.20
2017,06,21,06,45,12.30
2017,06,21,06,46,12.30
2017,06,21,06,47,12.30
2017,06,21,06,48,12.30
2017,06,21,06,49,12.30
2017,06,21,06,50,12.30
2017,06,21,06,51,12.30
2017,06,21,06,52,12.30
2017,06,21,06,53,12.30
2017,06,21,06,54,12.40
2017,06,21,06,55,12.40
2017,06,21,06,56,12.40
2017,06,21,06,57,12.40
2017,06,21,06,58,12.50
2017,06,21,06,59,12.50
2017,06,21,07,00,12.50
2017,06,21,07,01,12.50
2017,06,21,07,02,12.50
2017,06,21,07,03,12.50
2017,06,21,07,04,12.60
2017,06,21,07,05,12.60
2017,06,21,07,06,12.60
2017,06,21,07,07,12.60
2017,06,21,07,08,12.70
2017,06,21,07,09,12.70
2017,06,21,07,10,12.70
2017,06,21,07,11,12.70
2017,06,21,07,12,12.80
2017,06,21,07,13,12.80
2017,06,21,07,14,12.80
2017,06,21,07,15,12.80
2017,06,21,07,16,12.80
2017,06,21,07,17,12.80
2017,06,21,07,18,12.80
2017,06,21,07,19,12.90
2017,06,21,07,20,12.90
2017,06,21,07,21,12.90
2017,06,21,07,22,13.00
2017,06,21,07,23,13.00
2017,06,21,07,24,13.10
2017,06,21,07,25,13.10
2017,06,21,07,26,13.20
2017,06,21,07,27,13.20
2017,06,21,07,28,13.20
2017,06,21,07,29,13.20
2017,06,21,07,30,13.20
2017,06,21,07,31,13.20
2017,06,21,07,32,13.30
2017,06,21,07,33,13.30
2017,06,21,07,34,13.30
2017,06,21,07,35,13.30
2017,06,21,07,36,13.30
2017,06,21,07,37,13.30
2017,06,21,07,38,13.30
2017,06,21,07,39,13.30
2017,06,21,07,40,13.40
2017,06,21,07,41,13.40
2017,06,21,07,42,13.40
2017,06,21,07,43,13.40
2017,06,21,07,44,13.40
2017,06,21,07,45,13.50
2017,06,21,07,46,13.50
2017,06,21,07,47,13.50
2017,06,21,07,48,13.50
2017,06,21,07,49,13.50
2017,06,21,07,50,13.60
2017,06,21,07,51,13.60
2017,06,21,07,52,13.70
2017,06,21,07,53,13.70
2017,06,21,07,54,13.70
2017,06,21,07,55,13.70
2017,06,21,07,56,13.70
2017,06,21,07,57,13.70
2017,06,21,07,58,13.70
2017,06,21,07,59,13.70
2017,06,21,08,00,13.70
2017,06,21,08,01,13.80
2017,06,21,08,02,13.80
2017,06,21,08,03,13.90
2017,06,21,08,04,13.90
2017,06,21,08,05,13.90
2017,06,21,08,06,13.90
2017,06,21,08,07,13.90
2017,06,21,08,08,13.90
2017,06,21,08,09,13.90
2017,06,21,08,10,14.00
2017,06,21,08,11,14.00
2017,06,21,08,12,14.10
2017,06,21,08,13,14.10
2017,06,21,08,14,14.10
2017,06,21,08,15,14.10
2017,06,21,08,16,14.20
2017,06,21,08,17,14.20
2017,06,21,08,18,14.20
2017,06,21,08,19,14.20
2017,06,21,08,20,14.20
2017,06,21,08,21,14.20
2017,06,21,08,22,14.30
2017,06,21,08,23,14.30
2017,06,21,08,24,14.40
2017,06,21,08,25,14.40
2017,06,21,08,26,14.40
2017,06,21,08,27,14.40
2017,06,21,08,28,14.40
2017,06,21,08,29,14.50
2017,06,21,08,30,14.50
2017,06,21,08,31,14.50
2017,06,21,08,32,14.60
2017,06,21,08,33,14.70
2017,06,21,08,34,14.70
2017,06,21,08,35,14.80
2017,06,21,08,36,14.80
2017,06,21,08,37,14.90
2017,06,21,08,38,14.90
2017,06,21,08,39,14.90
2017,06,21,08,40,14.90
2017,06,21,08,41,14.90
2017,06,21,08,42,14.90
2017,06,21,08,43,15.00
2017,06,21,08,44,15.00
2017,06,21,08,45,15.00
2017,06,21,08,46,15.00
2017,06,21,08,47,15.00
2017,06,21,08,48,15.00
2017,06,21,08,49,15.00
2017,06,21,08,50,15.00
2017,06,21,08,51,15.00
2017,06,21,08,52,15.00
2017,06,21,08,53,15.00
2017,06,21,08,54,15.10
2017,06,21,08,55,15.10
2017,06,21,08,56,15.10
2017,06,21,08,57,15.10
2017,06,21,08,58,15.10
2017,06,21,08,59,15.10
2017,06,21,09,00,15.10
2017,06,21,09,01,15.10
2017,06,21,09,02,15.10
2017,06,21,09,03,15.10
2017,06,21,09,04,15.10
2017,06,21,09,05,15.10
2017,06,21,09,06,15.10
2017,06,21,09,07,15.10
2017,06,21,09,08,15.00
2017,06,21,09,09,15.00
2017,06,21,09,10,15.00
2017,06,21,09,11,15.10
2017,06,21,09,12,15.10
2017,06,21,09,13,15.10
2017,06,21,09,14,15.20
2017,06,21,09,15,15.20
2017,06,21,09,16,15.20
2017,06,21,09,17,15.20
2017,06,21,09,18,15.30
2017,06,21,09,19,15.30
2017,06,21,09,20,15.30
2017,06,21,09,21,15.30
2017,06,21,09,22,15.30
2017,06,21,09,23,15.30
2017,06,21,09,24,15.30
2017,06,21,09,25,15.40
2017,06,21,09,26,15.40
2017,06,21,09,27,15.40
2017,06,21,09,28,15.40
2017,06,21,09,29,15.40
2017,06,21,09,30,15.30
2017,06,21,09,31,15.30
2017,06,21,09,32,15.30
2017,06,21,09,33,15.30
2017,06,21,09,34,15.20
2017,06,21,09,35,15.20
2017,06,21,09,36,15.30
2017,06,21,09,37,15.30
2017,06,21,09,38,15.30
2017,06,21,09,39,15.30
2017,06,21,09,40,15.40
2017,06,21,09,41,15.40
2017,06,21,09,42,15.40
2017,06,21,09,43,15.40
2017,06,21,09,44,15.40
2017,06,21,09,45,15.30
2017,06,21,09,46,15.30
2017,06,21,09,47,15.30
2017,06,21,09,48,15.30
2017,06,21,09,49,15.40
2017,06,21,09,50,15.40
2017,06,21,09,51,15.30
2017,06,21,09,52,15.30
2017,06,21,09,53,15.30
2017,06,21,09,54,15.30
2017,06,21,09,55,15.30
2017,06,21,09,56,15.20
2017,06,21,09,57,15.20
2017,06,21,09,58,15.20
2017,06,21,09,59,15.20
2017,06,21,10,00,15.30
2017,06,21,10,01,15.30
2017,06,21,10,02,15.30
2017,06,21,10,03,15.30
2017,06,21,10,04,15.30
2017,06,21,10,05,15.30
2017,06,21,10,06,15.30
2017,06,21,10,07,15.30
2017,06,21,10,08,15.30
2017,06,21,10,09,15.30
2017,06,21,10,10,15.30
2017,06,21,10,11,15.30
2017,06,21,10,12,15.40
2017,06,21,10,13,15.50
2017,06,21,10,14,15.60
2017,06,21,10,15,15.60
2017,06,21,10,16,15.70
2017,06,21,10,17,15.70
2017,06,21,10,18,15.80
2017,06,21,10,19,15.80
2017,06,21,10,20,15.80
2017,06,21,10,21,15.80
2017,06,21,10,22,15.80
2017,06,21,10,23,15.80
2017,06,21,10,24,15.80
2017,06,21,10,25,15.80
2017,06,21,10,26,15.80
2017,06,21,10,27,15.80
2017,06,21,10,28,15.80
2017,06,21,10,29,15.80
2017,06,21,10,30,15.80
2017,06,21,10,31,15.80
2017,06,21,10,32,15.90
2017,06,21,10,33,15.90
2017,06,21,10,34,15.90
2017,06,21,10,35,16.00
2017,06,21,10,36,16.10
2017,06,21,10,37,16.10
2017,06,21,10,38,16.20
2017,06,21,10,39,16.30
2017,06,21,10,40,16.20
2017,06,21,10,41,16.20
2017,06,21,10,42,16.20
2017,06,21,10,43,16.20
2017,06,21,10,44,16.10
2017,06,21,10,45,16.20
2017,06,21,10,46,16.30
2017,06,21,10,47,16.40
2017,06,21,10,48,16.50
2017,06,21,10,49,16.40
2017,06,21,10,50,16.40
2017,06,21,10,51,16.30
2017,06,21,10,52,16.20
2017,06,21,10,53,16.20
2017,06,21,10,54,16.30
2017,06,21,10,55,16.40
2017,06,21,10,56,16.40
2017,06,21,10,57,16.40
2017,06,21,10,58,16.40
2017,06,21,10,59,16.40
2017,06,21,11,00,16.40
2017,06,21,11,01,16.40
2017,06,21,11,02,16.40
2017,06,21,11,03,16.30
2017,06,21,11,04,16.20
2017,06,21,11,05,16.10
2017,06,21,11,06,16.00
2017,06,21,11,07,15.80
2017,06,21,11,08,15.80
2017,06,21,11,09,15.80
2017,06,21,11,10,15.70
2017,06,21,11,11,15.80
2017,06,21,11,12,15.90
2017,06,21,11,13,16.00
2017,06,21,11,14,16.10
2017,06,21,11,15,16.10
2017,06,21,11,16,16.10
2017,06,21,11,17,16.10
2017,06,21,11,18,16.00
2017,06,21,11,19,16.00
2017,06,21,11,20,16.10
2017,06,21,11,21,16.20
2017,06,21,11,22,16.20
2017,06,21,11,23,16.20
2017,06,21,11,24,16.30
2017,06,21,11,25,16.30
2017,06,21,11,26,16.30
2017,06,21,11,27,16.30
2017,06,21,11,28,16.30
2017,06,21,11,29,16.30
2017,06,21,11,30,16.20
2017,06,21,11,31,16.20
2017,06,21,11,32,16.30
2017,06,21,11,33,16.40
2017,06,21,11,34,16.40
2017,06,21,11,35,16.40
2017,06,21,11,36,16.40
2017,06,21,11,37,16.40
2017,06,21,11,38,16.30
2017,06,21,11,39,16.30
2017,06,21,11,40,16.20
2017,06,21,11,41,16.20
2017,06,21,11,42,16.10
2017,06,21,11,43,16.20
2017,06,21,11,44,16.20
2017,06,21,11,45,16.20
2017,06,21,11,46,16.20
2017,06,21,11,47,16.40
2017,06,21,11,48,16.50
2017,06,21,11,49,16.70
2017,06,21,11,50,16.60
2017,06,21,11,51,16.60
2017,06,21,11,52,16.60
2017,06,21,11,53,16.50
2017,06,21,11,54,16.40
2017,06,21,11,55,16.40
2017,06,21,11,56,16.40
2017,06,21,11,57,16.40
2017,06,21,11,58,16.40
2017,06,21,11,59,16.40
2017,06,21,12,00,16.40
2017,06,21,12,01,16.40
2017,06,21,12,02,16.50
2017,06,21,12,03,16.60
2017,06,21,12,04,16.60
2017,06,21,12,05,16.60
2017,06,21,12,06,16.50
2017,06,21,12,07,16.40
2017,06,21,12,08,16.40
2017,06,21,12,09,16.40
2017,06,21,12,10,16.40
2017,06,21,12,11,16.40
2017,06,21,12,12,16.40
2017,06,21,12,13,16.50
2017,06,21,12,14,16.60
2017,06,21,12,15,16.80
2017,06,21,12,16,16.90
2017,06,21,12,17,16.80
2017,06,21,12,18,16.70
2017,06,21,12,19,16.60
2017,06,21,12,20,16.60
2017,06,21,12,21,16.70
2017,06,21,12,22,16.80
2017,06,21,12,23,16.90
2017,06,21,12,24,16.90
2017,06,21,12,25,17.00
2017,06,21,12,26,17.00
2017,06,21,12,27,17.10
2017,06,21,12,28,17.00
2017,06,21,12,29,17.00
2017,06,21,12,30,17.00
2017,06,21,12,31,17.00
2017,06,21,12,32,17.00
2017,06,21,12,33,16.90
2017,06,21,12,34,16.90
2017,06,21,12,35,16.90
2017,06,21,12,36,16.90
2017,06,21,12,37,16.90
2017,06,21,12,38,16.90
2017,06,21,12,39,17.00
2017,06,21,12,40,17.00
2017,06,21,12,41,17.00
2017,06,21,12,42,16.90
2017,06,21,12,43,16.80
2017,06,21,12,44,16.80
2017,06,21,12,45,16.70
2017,06,21,12,46,16.80
2017,06,21,12,47,16.80
2017,06,21,12,48,16.80
2017,06,21,12,49,16.70
2017,06,21,12,50,16.70
2017,06,21,12,51,16.80
2017,06,21,12,52,17.00
2017,06,21,12,53,17.00
2017,06,21,12,54,17.20
2017,06,21,12,55,17.20
2017,06,21,12,56,17.10
2017,06,21,12,57,17.10
2017,06,21,12,58,17.10
2017,06,21,12,59,17.20
2017,06,21,13,00,17.00
2017,06,21,13,01,17.00
2017,06,21,13,02,16.90
2017,06,21,13,03,17.00
2017,06,21,13,04,17.00
2017,06,21,13,05,17.00
2017,06,21,13,06,16.90
2017,06,21,13,07,16.90
2017,06,21,13,08,16.90
2017,06,21,13,09,16.90
2017,06,21,13,10,17.00
2017,06,21,13,11,17.00
2017,06,21,13,12,17.10
2017,06,21,13,13,17.20
2017,06,21,13,14,17.30
2017,06,21,13,15,17.40
2017,06,21,13,16,17.40
2017,06,21,13,17,17.40
2017,06,21,13,18,17.40
2017,06,21,13,19,17.30
2017,06,21,13,20,17.20
2017,06,21,13,21,17.20
2017,06,21,13,22,17.10
2017,06,21,13,23,17.10
2017,06,21,13,24,17.10
2017,06,21,13,25,17.20
2017,06,21,13,26,17.30
2017,06,21,13,27,17.30
2017,06,21,13,28,17.40
2017,06,21,13,29,17.40
2017,06,21,13,30,17.40
2017,06,21,13,31,17.40
2017,06,21,13,32,17.40
2017,06,21,13,33,17.30
2017,06,21,13,34,17.30
2017,06,21,13,35,17.30
2017,06,21,13,36,17.30
2017,06,21,13,37,17.40
2017,06,21,13,38,17.40
2017,06,21,13,39,17.40
2017,06,21,13,40,17.30
2017,06,21,13,41,17.30
2017,06,21,13,42,17.30
2017,06,21,13,43,17.30
2017,06,21,13,44,17.20
2017,06,21,13,45,17.20
2017,06,21,13,46,17.20
2017,06,21,13,47,17.30
2017,06,21,13,48,17.30
2017,06,21,13,49,17.30
2017,06,21,13,50,17.50
2017,06,21,13,51,17.50
2017,06,21,13,52,17.60
2017,06,21,13,53,17.50
2017,06,21,13,54,17.50
2017,06,21,13,55,17.40
2017,06,21,13,56,17.40
2017,06,21,13,57,17.50
2017,06,21,13,58,17.50
2017,06,21,13,59,17.50
2017,06,21,14,00,17.50
2017,06,21,14,01,17.50
2017,06,21,14,02,17.50
2017,06,21,14,03,17.60
2017,06,21,14,04,17.70
2017,06,21,14,05,17.70
2017,06,21,14,06,17.70
2017,06,21,14,07,17.60
2017,06,21,14,08,17.50
2017,06,21,14,09,17.40
2017,06,21,14,10,17.30
2017,06,21,14,11,17.30
2017,06,21,14,12,17.30
2017,06,21,14,13,17.30
2017,06,21,14,14,17.40
2017,06,21,14,15,17.50
2017,06,21,14,16,17.50
2017,06,21,14,17,17.50
2017,06,21,14,18,17.50
2017,06,21,14,19,17.50
2017,06,21,14,20,17.40
2017,06,21,14,21,17.50
2017,06,21,14,22,17.50
2017,06,21,14,23,17.40
2017,06,21,14,24,17.40
2017,06,21,14,25,17.50
2017,06,21,14,26,17.70
2017,06,21,14,27,17.90
2017,06,21,14,28,17.90
2017,06,21,14,29,17.90
2017,06,21,14,30,18.10
2017,06,21,14,31,18.20
2017,06,21,14,32,18.10
2017,06,21,14,33,18.20
2017,06,21,14,34,18.20
2017,06,21,14,35,18.10
2017,06,21,14,36,17.90
2017,06,21,14,37,17.90
2017,06,21,14,38,17.90
2017,06,21,14,39,18.00
2017,06,21,14,40,18.10
2017,06,21,14,41,18.20
2017,06,21,14,42,18.20
2017,06,21,14,43,18.10
2017,06,21,14,44,17.90
2017,06,21,14,45,18.00
2017,06,21,14,46,18.10
2017,06,21,14,47,18.10
2017,06,21,14,48,18.20
2017,06,21,14,49,18.10
2017,06,21,14,50,18.00
2017,06,21,14,51,17.90
2017,06,21,14,52,17.90
2017,06,21,14,53,17.90
2017,06,21,14,54,18.00
2017,06,21,14,55,18.10
2017,06,21,14,56,18.10
2017,06,21,14,57,18.10
2017,06,21,14,58,18.10
2017,06,21,14,59,18.10
2017,06,21,15,00,18.10
2017,06,21,15,01,18.10
2017,06,21,15,02,18.10
2017,06,21,15,03,18.00
2017,06,21,15,04,18.00
2017,06,21,15,05,18.10
2017,06,21,15,06,18.10
2017,06,21,15,07,18.20
2017,06,21,15,08,18.20
2017,06,21,15,09,18.20
2017,06,21,15,10,18.30
2017,06,21,15,11,18.30
2017,06,21,15,12,18.30
2017,06,21,15,13,18.20
2017,06,21,15,14,18.20
2017,06,21,15,15,18.20
2017,06,21,15,16,18.10
2017,06,21,15,17,18.10
2017,06,21,15,18,18.10
2017,06,21,15,19,18.10
2017,06,21,15,20,18.20
2017,06,21,15,21,18.20
2017,06,21,15,22,18.30
2017,06,21,15,23,18.40
2017,06,21,15,24,18.40
2017,06,21,15,25,18.40
2017,06,21,15,26,18.40
2017,06,21,15,27,18.40
2017,06,21,15,28,18.50
2017,06,21,15,29,18.60
2017,06,21,15,30,18.80
2017,06,21,15,31,18.90
2017,06,21,15,32,18.90
2017,06,21,15,33,18.90
2017,06,21,15,34,18.90
2017,06,21,15,35,18.90
2017,06,21,15,36,18.90
2017,06,21,15,37,18.90
2017,06,21,15,38,18.90
2017,06,21,15,39,18.90
2017,06,21,15,40,18.90
2017,06,21,15,41,19.10
2017,06,21,15,42,19.10
2017,06,21,15,43,19.30
2017,06,21,15,44,19.30
2017,06,21,15,45,19.40
2017,06,21,15,46,19.50
2017,06,21,15,47,19.60
2017,06,21,15,48,19.80
2017,06,21,15,49,20.00
2017,06,21,15,50,20.20
2017,06,21,15,51,20.40
2017,06,21,15,52,20.50
2017,06,21,15,53,20.60
2017,06,21,15,54,20.60
2017,06,21,15,55,20.70
2017,06,21,15,56,20.70
2017,06,21,15,57,20.70
2017,06,21,15,58,20.70
2017,06,21,15,59,20.60
2017,06,21,16,00,20.50
2017,06,21,16,01,20.40
2017,06,21,16,02,20.30
2017,06,21,16,03,20.30
2017,06,21,16,04,20.40
2017,06,21,16,05,20.50
2017,06,21,16,06,20.60
2017,06,21,16,07,20.80
2017,06,21,16,08,20.90
2017,06,21,16,09,20.90
2017,06,21,16,10,20.90
2017,06,21,16,11,21.00
2017,06,21,16,12,20.90
2017,06,21,16,13,20.90
2017,06,21,16,14,20.90
2017,06,21,16,15,20.90
2017,06,21,16,16,20.90
2017,06,21,16,17,20.80
2017,06,21,16,18,20.60
2017,06,21,16,19,20.50
2017,06,21,16,20,20.50
2017,06,21,16,21,20.30
2017,06,21,16,22,20.20
2017,06,21,16,23,20.00
2017,06,21,16,24,19.60
2017,06,21,16,25,19.40
2017,06,21,16,26,19.20
2017,06,21,16,27,19.20
2017,06,21,16,28,19.10
2017,06,21,16,29,19.10
2017,06,21,16,30,19.00
2017,06,21,16,31,19.10
2017,06,21,16,32,19.00
2017,06,21,16,33,18.90
2017,06,21,16,34,18.90
2017,06,21,16,35,18.70
2017,06,21,16,36,18.60
2017,06,21,16,37,18.60
2017,06,21,16,38,18.70
2017,06,21,16,39,18.60
2017,06,21,16,40,18.60
2017,06,21,16,41,18.60
2017,06,21,16,42,18.70
2017,06,21,16,43,18.80
2017,06,21,16,44,18.90
2017,06,21,16,45,18.90
2017,06,21,16,46,18.90
2017,06,21,16,47,18.90
2017,06,21,16,48,18.90
2017,06,21,16,49,18.90
2017,06,21,16,50,19.00
2017,06,21,16,51,19.10
2017,06,21,16,52,19.10
2017,06,21,16,53,19.10
2017,06,21,16,54,19.10
2017,06,21,16,55,19.10
2017,06,21,16,56,19.10
2017,06,21,16,57,19.10
2017,06,21,16,58,19.10
2017,06,21,16,59,19.10
2017,06,21,17,00,19.00
2017,06,21,17,01,18.90
2017,06,21,17,02,18.90
2017,06,21,17,03,19.00
2017,06,21,17,04,19.10
2017,06,21,17,05,18.90
2017,06,21,17,06,18.70
2017,06,21,17,07,18.70
2017,06,21,17,08,18.80
2017,06,21,17,09,18.90
2017,06,21,17,10,18.90
2017,06,21,17,11,19.00
2017,06,21,17,12,19.10
2017,06,21,17,13,19.10
2017,06,21,17,14,19.10
2017,06,21,17,15,19.20
2017,06,21,17,16,19.20
2017,06,21,17,17,19.10
2017,06,21,17,18,19.10
2017,06,21,17,19,19.10
2017,06,21,17,20,19.10
2017,06,21,17,21,19.10
2017,06,21,17,22,19.00
2017,06,21,17,23,18.90
2017,06,21,17,24,18.80
2017,06,21,17,25,18.80
2017,06,21,17,26,18.70
2017,06,21,17,27,18.50
2017,06,21,17,28,18.40
2017,06,21,17,29,18.20
2017,06,21,17,30,18.20
2017,06,21,17,31,18.20
2017,06,21,17,32,18.20
2017,06,21,17,33,18.20
2017,06,21,17,34,18.20
2017,06,21,17,35,18.20
2017,06,21,17,36,18.20
2017,06,21,17,37,18.20
2017,06,21,17,38,18.20
2017,06,21,17,39,18.30
2017,06,21,17,40,18.40
2017,06,21,17,41,18.50
2017,06,21,17,42,18.50
2017,06,21,17,43,18.40
2017,06,21,17,44,18.20
2017,06,21,17,45,18.20
2017,06,21,17,46,18.20
2017,06,21,17,47,18.20
2017,06,21,17,48,18.20
2017,06,21,17,49,18.20
2017,06,21,17,50,18.20
2017,06,21,17,51,18.20
2017,06,21,17,52,18.20
2017,06,21,17,53,18.10
2017,06,21,17,54,18.20
2017,06,21,17,55,18.20
2017,06,21,17,56,18.20
2017,06,21,17,57,18.20
2017,06,21,17,58,18.20
2017,06,21,17,59,18.20
2017,06,21,18,00,18.20
2017,06,21,18,01,18.20
2017,06,21,18,02,18.30
2017,06,21,18,03,18.30
2017,06,21,18,04,18.40
2017,06,21,18,05,18.40
2017,06,21,18,06,18.50
2017,06,21,18,07,18.50
2017,06,21,18,08,18.50
2017,06,21,18,09,18.50
2017,06,21,18,10,18.40
2017,06,21,18,11,18.40
2017,06,21,18,12,18.40
2017,06,21,18,13,18.40
2017,06,21,18,14,18.30
2017,06,21,18,15,18.20
2017,06,21,18,16,18.20
2017,06,21,18,17,18.30
2017,06,21,18,18,18.30
2017,06,21,18,19,18.30
2017,06,21,18,20,18.30
2017,06,21,18,21,18.30
2017,06,21,18,22,18.20
2017,06,21,18,23,18.20
2017,06,21,18,24,18.20
2017,06,21,18,25,18.30
2017,06,21,18,26,18.30
2017,06,21,18,27,18.40
2017,06,21,18,28,18.50
2017,06,21,18,29,18.60
2017,06,21,18,30,18.60
2017,06,21,18,31,18.60
2017,06,21,18,32,18.60
2017,06,21,18,33,18.50
2017,06,21,18,34,18.50
2017,06,21,18,35,18.30
2017,06,21,18,36,18.30
2017,06,21,18,37,18.20
2017,06,21,18,38,18.20
2017,06,21,18,39,18.20
2017,06,21,18,40,18.10
2017,06,21,18,41,18.10
2017,06,21,18,42,18.00
2017,06,21,18,43,18.00
2017,06,21,18,44,18.00
2017,06,21,18,45,18.00
2017,06,21,18,46,18.10
2017,06,21,18,47,18.10
2017,06,21,18,48,18.10
2017,06,21,18,49,18.10
2017,06,21,18,50,18.20
2017,06,21,18,51,18.20
2017,06,21,18,52,18.10
2017,06,21,18,53,18.10
2017,06,21,18,54,18.10
2017,06,21,18,55,18.10
2017,06,21,18,56,18.00
2017,06,21,18,57,18.10
2017,06,21,18,58,18.10
2017,06,21,18,59,18.10